Wind_Speed
13 12 11 10 8 7 8 10 10 10 11 12 10 7 5 6 7 9 10 8 7 7 6 6 5 6 8 11 12 12 12 10 9 8 9 9 10 10 10 11 10 9
14 14 13 11 9 8 8 9 9 10 11 11 10 7 7 7 7 8 9 9 8 8 8 7 7 8 9 10 11 11 11 9 8 7 7 6 7 8 9 9 8 7
16 15 13 11 10 9 9 9 9 9 10 10 9 6 7 8 8 8 8 8 8 9 9 8 9 9 10 10 10 10 10 9 8 7 6 5 6 7 7 7 6 5
17 15 14 13 11 10 10 9 8 9 9 9 7 5 6 8 8 7 7 7 8 8 9 9 9 10 9 10 10 9 8 7 7 8 8 7 7 7 7 6 5 5
18 16 15 13 11 11 10 9 8 9 8 8 7 5 6 7 7 6 6 7 7 8 10 10 10 10 9 9 9 9 8 7 8 8 8 8 8 8 7 6 6 5
19 18 16 14 12 11 10 9 8 8 8 7 7 5 7 7 7 6 5 6 7 8 9 10 9 9 9 9 9 9 9 8 8 7 7 7 7 6 5 5 5 5
19 18 16 14 12 11 10 9 9 8 7 7 6 5 7 8 7 6 5 6 7 9 9 8 8 9 9 9 9 9 8 7 7 7 6 5 5 4 3 2 2 3
20 19 16 14 12 10 10 10 9 8 7 6 6 5 7 9 7 6 6 7 8 9 9 8 8 9 9 9 9 9 9 8 8 8 7 6 5 4 3 1 1 1
21 20 17 13 10 10 10 9 8 8 6 6 6 5 7 10 8 6 7 7 9 10 10 10 10 10 10 10 10 10 10 9 9 9 9 8 7 6 4 3 3 3
22 20 15 12 10 11 11 9 8 7 6 6 6 5 7 11 9 7 7 8 10 11 11 11 11 11 11 11 11 11 10 10 9 9 9 9 9 8 7 5 5 5
22 18 15 13 11 11 10 9 8 7 6 6 7 5 7 11 10 8 8 10 10 11 12 12 12 12 12 11 11 11 10 10 10 9 9 10 10 9 8 7 6 6
21 17 15 14 12 10 9 9 7 7 6 7 7 6 7 11 12 9 10 12 11 11 12 12 12 12 11 11 11 10 10 10 10 10 9 9 9 9 8 7 5 4
19 15 14 14 13 11 10 10 9 8 7 7 8 7 8 12 13 12 12 13 13 12 12 12 12 11 11 11 10 10 10 10 10 10 9 8 8 7 7 6 5 4
13 12 13 14 13 12 12 12 11 9 8 8 8 8 8 12 15 15 14 14 14 13 13 12 12 12 12 11 10 10 10 9 10 10 10 9 9 8 8 7 7 7
14 15 15 15 14 13 14 14 13 10 9 9 9 8 8 10 13 15 15 15 14 13 13 12 12 12 12 12 12 11 11 11 11 11 11 11 11 10 10 10 9 10
17 17 16 16 15 15 15 14 13 12 11 11 10 10 10 10 11 13 14 15 15 14 13 12 12 12 13 13 13 13 13 13 13 13 13 13 13 13 13 12 12 13
17 18 17 17 17 17 16 14 14 14 14 14 13 13 12 12 12 12 12 14 14 14 13 13 13 13 13 13 14 14 15 15 15 15 16 16 16 15 15 15 15 16
17 18 19 19 19 19 18 16 16 16 16 15 16 15 14 13 13 13 13 14 15 15 15 15 15 15 15 15 15 15 16 16 17 17 18 18 18 18 18 19 19 19
16 18 19 19 18 19 20 19 18 18 17 17 17 16 15 14 13 13 14 14 15 15 15 16 16 17 17 17 17 18 18 19 20 20 20 20 21 21 22 22 22 23
16 18 19 20 20 20 21 22 21 20 21 20 18 16 16 16 15 15 14 15 15 16 16 16 16 17 18 19 20 20 21 22 23 23 23 23 23 24 24 24 24 25
18 19 21 22 22 22 23 23 23 23 23 21 18 17 17 17 16 16 16 16 16 17 17 17 17 18 19 20 21 22 23 25 26 26 27 27 27 26 26 26 26 26
19 20 22 23 24 25 26 25 24 24 23 21 19 19 19 19 19 19 18 18 18 19 19 19 19 20 21 21 22 23 24 25 26 27 29 30 30 30 30 30 29 30
22 23 24 25 26 27 27 26 25 24 24 23 22 22 22 22 22 22 21 21 21 21 21 21 21 22 23 23 24 24 24 25 25 26 27 27 28 28 29 30 31 32
22 24 25 26 27 26 26 25 26 26 25 25 25 24 24 24 24 24 23 22 22 22 22 22 22 23 24 24 25 25 26 26 26 27 27 27 27 27 28 29 31 32
23 23 23 23 24 23 23 24 25 25 26 26 25 26 25 25 25 24 24 24 24 24 24 24 24 24 25 25 26 26 28 28 29 30 30 30 30 30 31 31 32 33
22 22 22 22 23 22 21 21 21 22 24 25 25 26 26 26 26 26 25 25 26 26 27 27 27 27 28 29 29 30 31 32 33 34 35 35 35 36 36 37 37 37
Wind_Direction
194 201 212 225 241 274 299 303 303 304 303 302 298 289 264 238 237 240 235 233 238 235 226 215 201 190 183 184 193 201 205 209 214 224 230 230 229 228 233 235 236 239
203 211 220 232 245 274 297 300 300 302 301 301 298 278 249 234 232 237 235 228 220 212 206 201 191 184 179 177 183 191 194 199 208 217 224 223 214 209 213 218 217 218
212 219 226 236 248 271 291 292 292 295 296 299 297 269 235 230 231 233 236 229 215 201 194 192 188 185 183 183 186 190 191 193 196 195 191 186 182 185 191 195 193 188
220 225 230 238 251 272 285 283 281 283 287 294 292 256 221 222 227 233 241 230 208 191 187 185 185 183 180 179 179 180 180 180 179 174 171 170 170 171 172 173 175 170
226 229 233 242 257 274 281 276 270 273 280 288 286 249 213 211 218 228 241 231 205 189 187 184 180 177 174 172 171 170 170 170 170 166 163 163 164 165 164 165 170 171
229 230 235 246 259 272 278 270 263 266 274 282 284 254 216 204 204 215 228 221 202 191 191 184 174 172 172 171 169 166 166 166 162 156 152 155 155 154 155 156 163 165
227 229 235 247 257 265 267 259 255 262 269 276 281 260 223 204 196 205 214 206 193 189 190 181 168 167 169 168 163 158 154 151 144 137 133 137 136 133 134 144 160 159
227 228 234 243 252 256 252 246 248 257 266 271 278 261 222 205 198 204 211 198 184 180 179 171 162 162 161 157 154 148 143 140 134 127 123 121 122 125 131 145 162 147
225 227 229 234 243 246 241 239 243 252 260 266 276 264 213 200 200 208 211 193 175 170 167 162 159 158 156 154 152 149 145 142 137 131 129 129 128 129 132 137 134 128
225 226 222 218 225 232 231 231 240 249 252 256 269 261 206 194 197 204 200 183 169 165 161 158 157 156 159 160 157 153 150 144 139 138 139 138 134 132 133 133 131 127
223 217 205 202 208 219 224 225 235 246 244 243 254 250 206 191 189 193 187 174 168 167 161 156 157 159 164 165 160 157 156 148 143 144 147 143 135 134 136 134 132 129
219 205 193 197 200 206 218 221 227 235 231 231 238 234 208 192 187 186 183 175 171 172 166 159 159 163 168 168 163 163 163 156 149 149 150 145 138 139 143 144 147 148
220 204 193 198 202 206 215 218 221 225 222 223 228 221 201 192 189 186 184 180 178 179 174 167 165 168 171 173 170 168 169 164 159 157 156 154 154 158 164 171 180 188
203 195 192 201 208 212 216 217 217 220 217 218 223 217 198 191 192 191 189 187 187 188 185 179 175 176 178 180 181 178 176 175 173 172 173 175 180 185 190 196 203 213
189 191 195 203 208 213 219 219 214 213 211 211 217 215 203 193 194 196 195 194 195 198 199 195 189 188 188 188 191 192 191 191 191 192 193 195 199 202 205 210 217 226
198 196 197 202 205 212 219 218 212 208 204 204 208 207 202 196 194 197 201 203 204 206 210 211 209 205 202 200 202 204 207 208 207 209 210 211 213 215 218 223 229 237
197 199 200 201 202 208 213 211 212 212 206 204 203 201 200 197 193 196 202 208 211 212 216 221 223 223 221 219 217 217 219 221 221 222 223 224 227 230 232 236 239 244
201 202 203 200 201 208 211 209 211 213 212 210 207 204 203 201 201 202 205 210 213 214 217 221 226 230 232 232 234 236 237 238 238 239 239 239 241 244 246 248 251 253
207 205 207 204 206 214 217 215 214 216 219 219 215 212 211 210 211 213 213 215 218 218 220 225 229 232 235 236 237 240 243 246 248 249 250 250 251 252 253 254 256 258
215 210 208 208 214 221 222 221 220 221 225 226 224 222 223 223 222 221 222 223 224 225 225 227 232 236 238 239 239 240 242 244 246 248 250 251 252 253 254 255 257 258
220 214 210 212 218 222 223 224 225 226 228 229 229 231 235 235 231 228 229 229 229 230 231 231 235 236 237 239 241 241 242 244 245 246 248 249 250 252 255 256 258 260
221 220 218 219 221 222 220 221 223 226 229 231 233 235 238 239 237 235 235 234 232 233 233 234 237 239 240 241 242 243 245 246 247 248 249 250 251 252 254 255 256 257
222 224 225 226 228 225 220 218 221 225 230 234 235 237 238 238 239 239 239 239 239 239 239 239 239 241 243 244 246 248 250 251 252 252 252 252 251 251 252 252 253 254
227 230 229 230 233 230 223 222 223 225 230 234 236 238 240 241 242 243 243 245 246 247 248 247 246 248 249 251 252 254 256 256 257 257 256 255 254 253 252 252 253 254
235 240 241 241 244 239 230 224 223 224 229 233 236 240 242 243 245 247 248 250 251 253 255 255 254 254 256 258 259 261 263 264 265 265 265 264 263 262 261 261 260 261
234 242 247 251 253 253 246 237 230 228 230 233 237 240 242 244 245 247 249 253 255 257 260 261 261 261 263 265 266 267 269 270 271 271 272 271 271 270 269 269 269 269
Height
3136 3138 3139 3140 3141 3141 3141 3141 3140 3140 3139 3139 3139 3139 3139 3139 3139 3139 3140 3140 3141 3140 3139 3140 3140 3140 3140 3141 3143 3144 3145 3146 3146 3147 3147 3148 3148 3149 3150 3151 3152 3152
3136 3137 3138 3140 3140 3141 3141 3140 3140 3139 3138 3138 3138 3138 3138 3138 3138 3138 3138 3139 3140 3140 3139 3139 3139 3140 3140 3141 3142 3143 3145 3145 3146 3146 3146 3146 3147 3147 3148 3149 3150 3152
3135 3137 3138 3139 3140 3140 3140 3140 3140 3139 3138 3137 3137 3137 3137 3137 3137 3137 3138 3138 3139 3139 3138 3138 3139 3139 3140 3140 3141 3142 3143 3144 3145 3145 3145 3146 3146 3146 3147 3148 3149 3151
3134 3136 3137 3138 3139 3139 3140 3140 3139 3138 3138 3137 3136 3136 3137 3137 3137 3137 3137 3138 3138 3138 3138 3138 3138 3139 3139 3140 3141 3141 3142 3143 3144 3144 3145 3145 3145 3146 3147 3148 3149 3150
3134 3135 3136 3137 3138 3139 3139 3139 3138 3138 3137 3136 3136 3136 3136 3136 3137 3137 3137 3137 3137 3137 3137 3138 3138 3138 3139 3139 3140 3141 3142 3143 3143 3144 3144 3144 3145 3145 3146 3147 3148 3150
3133 3134 3135 3136 3137 3138 3138 3138 3137 3137 3136 3136 3136 3135 3135 3136 3136 3137 3137 3137 3137 3137 3137 3138 3138 3139 3139 3140 3141 3141 3142 3142 3143 3143 3143 3144 3144 3145 3146 3147 3148 3149
3132 3133 3134 3135 3136 3137 3137 3137 3136 3136 3135 3135 3135 3135 3135 3135 3136 3136 3137 3137 3137 3137 3137 3138 3139 3139 3140 3141 3141 3142 3142 3142 3143 3143 3143 3144 3144 3144 3145 3146 3147 3149
3130 3132 3133 3134 3135 3135 3135 3135 3135 3135 3135 3134 3134 3134 3134 3135 3135 3136 3136 3137 3137 3137 3138 3138 3139 3140 3140 3141 3142 3142 3142 3142 3143 3143 3143 3144 3144 3145 3145 3146 3147 3148
3127 3129 3131 3132 3133 3133 3134 3134 3134 3134 3134 3134 3133 3133 3134 3135 3135 3136 3136 3136 3137 3137 3138 3138 3139 3140 3141 3141 3142 3142 3142 3142 3143 3143 3144 3144 3145 3145 3146 3147 3148 3149
3124 3126 3128 3129 3130 3131 3132 3132 3133 3133 3133 3133 3133 3133 3133 3134 3135 3136 3136 3137 3137 3138 3138 3139 3140 3140 3141 3141 3142 3142 3142 3142 3143 3143 3144 3145 3145 3146 3146 3147 3148 3149
3123 3125 3126 3127 3128 3129 3130 3131 3131 3132 3132 3132 3132 3132 3133 3134 3135 3136 3136 3137 3137 3138 3138 3139 3140 3141 3141 3142 3142 3142 3142 3143 3143 3144 3145 3145 3146 3146 3147 3148 3149 3150
3123 3124 3125 3126 3126 3127 3129 3130 3130 3131 3131 3131 3131 3132 3132 3133 3134 3135 3136 3137 3137 3138 3139 3140 3140 3141 3142 3142 3143 3143 3143 3143 3144 3144 3145 3145 3146 3147 3147 3148 3149 3150
3121 3122 3124 3125 3126 3126 3127 3128 3129 3129 3130 3130 3131 3131 3132 3133 3133 3134 3135 3136 3137 3138 3139 3139 3140 3141 3142 3142 3143 3143 3144 3144 3144 3145 3145 3146 3146 3147 3148 3148 3149 3150
3119 3120 3122 3124 3124 3125 3126 3127 3127 3128 3129 3130 3130 3131 3131 3132 3133 3134 3135 3136 3136 3137 3138 3140 3140 3141 3142 3142 3143 3144 3144 3144 3145 3145 3146 3146 3147 3147 3148 3148 3149 3150
3117 3119 3121 3122 3123 3124 3125 3126 3126 3127 3129 3129 3130 3130 3131 3131 3132 3133 3134 3135 3136 3137 3138 3139 3140 3141 3142 3142 3143 3143 3144 3144 3145 3145 3146 3146 3147 3147 3148 3148 3149 3149
3116 3118 3119 3120 3121 3123 3124 3125 3126 3127 3128 3129 3129 3130 3130 3131 3132 3133 3133 3134 3135 3137 3138 3139 3140 3141 3141 3142 3142 3143 3143 3143 3144 3144 3145 3145 3146 3146 3147 3147 3148 3148
3115 3116 3117 3118 3120 3121 3123 3124 3125 3126 3127 3128 3128 3129 3129 3130 3131 3131 3133 3134 3135 3136 3137 3138 3139 3139 3140 3141 3142 3142 3142 3142 3143 3143 3144 3144 3144 3145 3145 3146 3146 3146
3113 3115 3116 3117 3118 3120 3121 3122 3124 3125 3126 3127 3127 3128 3128 3129 3129 3130 3131 3132 3133 3134 3135 3136 3137 3138 3139 3140 3140 3141 3141 3141 3141 3142 3142 3142 3142 3143 3143 3143 3143 3144
3111 3113 3114 3115 3117 3118 3119 3120 3122 3123 3125 3125 3126 3127 3127 3128 3128 3129 3130 3131 3132 3133 3134 3134 3135 3136 3137 3137 3138 3139 3139 3139 3139 3140 3140 3140 3140 3140 3140 3140 3141 3141
3109 3111 3112 3114 3115 3117 3118 3119 3120 3122 3123 3123 3125 3126 3126 3127 3128 3128 3129 3130 3131 3132 3132 3133 3133 3134 3135 3135 3136 3136 3136 3136 3136 3137 3137 3137 3137 3137 3137 3137 3137 3137
3108 3109 3110 3111 3113 3115 3116 3117 3119 3120 3121 3122 3123 3124 3125 3126 3126 3127 3128 3129 3129 3130 3131 3131 3132 3132 3132 3133 3133 3133 3133 3133 3133 3133 3133 3133 3134 3134 3134 3134 3134 3134
3107 3108 3109 3110 3111 3112 3113 3115 3116 3118 3119 3120 3121 3122 3123 3124 3124 3125 3125 3126 3127 3127 3128 3129 3129 3129 3130 3130 3130 3130 3130 3130 3130 3130 3130 3130 3130 3131 3131 3131 3131 3131
3106 3107 3108 3109 3109 3109 3110 3112 3114 3115 3116 3117 3118 3119 3120 3121 3122 3122 3123 3123 3124 3124 3125 3126 3126 3126 3126 3127 3127 3127 3126 3126 3126 3126 3126 3126 3127 3128 3128 3128 3128 3128
3105 3105 3106 3107 3107 3108 3109 3110 3111 3112 3113 3114 3115 3116 3117 3118 3119 3119 3120 3120 3120 3121 3121 3122 3123 3123 3123 3123 3123 3123 3123 3123 3122 3122 3122 3122 3123 3123 3123 3123 3123 3123
3103 3103 3104 3105 3106 3106 3107 3107 3107 3108 3110 3111 3112 3113 3114 3115 3116 3116 3116 3116 3117 3117 3117 3118 3119 3119 3119 3119 3119 3118 3118 3118 3118 3117 3117 3118 3119 3119 3118 3118 3118 3118
3100 3100 3101 3102 3103 3104 3105 3105 3105 3106 3107 3109 3110 3110 3111 3112 3113 3113 3113 3113 3113 3113 3113 3114 3114 3114 3114 3114 3114 3114 3113 3113 3113 3112 3113 3113 3114 3114 3114 3113 3113 3113